TimeAKDT,TemperatureF,Dew PointF,Humidity,Sea Level PressureIn,VisibilityMPH,Wind Direction,Wind SpeedMPH,Gust SpeedMPH,PrecipitationIn,Events,Conditions,WindDirDegrees,DateUTC
12:10 AM,33.8,28.4,81,29.35,6.0,NNW,23.0,-,0.00,Snow,Light Snow,330,2012-10-14 08:10:00
12:28 AM,33.8,28.4,81,29.36,4.0,NNW,28.8,39.1,0.00,Snow,Light Snow,340,2012-10-14 08:28:00
12:46 AM,33.8,28.4,81,29.35,2.5,NW,34.5,43.7,0.01,Snow,Light Snow,320,2012-10-14 08:46:00
12:53 AM,32.0,28.9,88,29.35,2.0,NW,28.8,43.7,0.01,Snow,Light Snow,320,2012-10-14 08:53:00
12:56 AM,33.8,28.4,81,29.34,4.0,NW,27.6,41.4,0.00,Snow,Light Snow,320,2012-10-14 08:56:00
1:53 AM,34.0,28.0,79,29.35,7.0,NNW,20.7,38.0,0.00,Snow,Light Snow,330,2012-10-14 09:53:00
2:06 AM,35.6,28.4,75,29.35,9.0,North,28.8,44.9,0.00,Snow,Light Snow,350,2012-10-14 10:06:00
2:53 AM,35.1,27.0,72,29.36,10.0,NNW,29.9,47.2,0.00,,Overcast,340,2012-10-14 10:53:00
3:53 AM,34.0,28.0,79,29.37,4.0,NNW,32.2,42.6,0.00,Snow,Light Snow,340,2012-10-14 11:53:00
4:53 AM,35.1,26.1,70,29.37,9.0,NNW,38.0,50.6,0.00,Snow,Light Snow,340,2012-10-14 12:53:00
5:53 AM,36.0,25.0,64,29.37,10.0,NNW,31.1,43.7,0.00,,Overcast,330,2012-10-14 13:53:00
6:53 AM,37.0,27.0,67,29.38,10.0,NNW,31.1,47.2,0.00,,Overcast,330,2012-10-14 14:53:00
7:53 AM,37.0,27.0,67,29.39,10.0,NNW,29.9,43.7,N/A,,Overcast,330,2012-10-14 15:53:00
8:53 AM,37.0,27.0,67,29.41,10.0,NNW,28.8,41.4,N/A,,Mostly Cloudy,330,2012-10-14 16:53:00
9:53 AM,37.0,26.1,65,29.42,10.0,NNW,32.2,39.1,0.00,,Scattered Clouds,330,2012-10-14 17:53:00
10:53 AM,37.9,27.0,65,29.42,10.0,NNW,29.9,42.6,N/A,,Mostly Cloudy,330,2012-10-14 18:53:00
11:53 AM,39.9,28.0,63,29.43,10.0,NNW,25.3,42.6,0.00,,Scattered Clouds,340,2012-10-14 19:53:00
12:53 PM,41.0,28.0,60,29.44,10.0,NNW,35.7,46.0,N/A,,Scattered Clouds,340,2012-10-14 20:53:00
1:53 PM,39.9,27.0,60,29.44,10.0,NNW,34.5,42.6,N/A,,Mostly Cloudy,330,2012-10-14 21:53:00
2:53 PM,39.9,27.0,60,29.45,10.0,NNW,31.1,43.7,N/A,,Scattered Clouds,330,2012-10-14 22:53:00
3:53 PM,39.0,30.0,70,29.46,10.0,NNW,31.1,42.6,N/A,,Mostly Cloudy,330,2012-10-14 23:53:00
4:21 PM,35.6,28.4,75,29.47,3.0,NNW,28.8,43.7,0.00,Snow,Light Snow,330,2012-10-15 00:21:00
4:39 PM,39.2,30.2,70,29.46,10.0,NNW,33.4,42.6,0.00,,Scattered Clouds,330,2012-10-15 00:39:00
4:53 PM,36.0,30.9,82,29.47,7.0,NW,29.9,42.6,0.00,Snow,Light Snow,320,2012-10-15 00:53:00
5:25 PM,35.6,30.2,81,29.47,5.0,NNW,28.8,48.3,0.00,Snow,Light Snow,330,2012-10-15 01:25:00
5:33 PM,37.4,32.0,81,29.47,9.0,NNW,27.6,39.1,0.00,,Mostly Cloudy,330,2012-10-15 01:33:00
5:53 PM,39.0,33.1,79,29.47,9.0,NW,35.7,43.7,0.00,,Mostly Cloudy,320,2012-10-15 01:53:00
6:09 PM,37.4,32.0,81,29.47,10.0,NW,31.1,39.1,0.00,,Overcast,320,2012-10-15 02:09:00
6:27 PM,37.4,30.2,75,29.48,10.0,NNW,28.8,39.1,0.00,,Scattered Clouds,330,2012-10-15 02:27:00
6:53 PM,37.0,30.0,76,29.49,10.0,NW,33.4,42.6,0.00,,Scattered Clouds,320,2012-10-15 02:53:00
7:09 PM,35.6,30.2,81,29.50,4.0,NNW,29.9,46.0,0.00,Snow,Light Snow,330,2012-10-15 03:09:00
7:44 PM,35.6,32.0,87,29.49,8.0,NNW,29.9,42.6,0.00,,Overcast,330,2012-10-15 03:44:00
7:51 PM,35.6,32.0,87,29.49,6.0,NW,28.8,42.6,0.00,Snow,Light Snow,320,2012-10-15 03:51:00
7:53 PM,35.1,32.0,89,29.50,6.0,NNW,31.1,42.6,0.00,Snow,Light Snow,330,2012-10-15 03:53:00
8:03 PM,35.6,30.2,81,29.50,9.0,NNW,25.3,34.5,0.00,,Mostly Cloudy,330,2012-10-15 04:03:00
8:13 PM,35.6,32.0,87,29.50,9.0,NNW,28.8,40.3,0.00,Rain,Light Rain,330,2012-10-15 04:13:00
8:53 PM,37.0,28.0,70,29.52,10.0,NW,28.8,39.1,0.00,,Overcast,310,2012-10-15 04:53:00
9:53 PM,37.0,27.0,67,29.53,10.0,NW,26.5,38.0,N/A,,Overcast,320,2012-10-15 05:53:00
10:53 PM,37.0,27.0,67,29.54,10.0,NNW,24.2,34.5,N/A,,Overcast,330,2012-10-15 06:53:00
11:53 PM,37.0,27.0,67,29.55,10.0,NW,27.6,33.4,N/A,,Overcast,320,2012-10-15 07:53:00